CW6427 Weather Reports


Display with metric or nautical units.
time (UTC)temp
F
wind
direction
speed
MPH
gust
MPH
rain 1hr
in
rain 24hr
in
rain mn
in
humidity
%
barometer
mb
20260509161900 51 183 7.0 14.0 0.00 0.03 0.03 92 1009.7
20260509154900 51 160 9.0 13.0 0.00 0.03 0.03 93 1009.7
20260509153859 50 197 11.0 14.0 0.00 0.03 0.03 93 1009.6
20260509152859 50 191 7.0 13.0 0.00 0.03 0.03 94 1009.9
20260509151859 50 203 11.0 11.0 0.00 0.03 0.03 94 1010.2
20260509150859 49 186 8.0 11.0 0.00 0.03 0.03 95 1010.2
20260509145858 49 171 5.0 12.0 0.00 0.03 0.03 96 1010.2
20260509144858 49 138 8.0 10.0 0.00 0.03 0.03 97 1010.0
20260509143858 49 150 8.0 8.0 0.00 0.03 0.03 97 1010.3
20260509142858 48 161 5.0 10.0 0.01 0.04 0.03 97 1010.5
20260509141858 49 163 7.0 10.0 0.01 0.04 0.03 97 1010.6
20260509135857 48 189 9.0 10.0 0.01 0.04 0.03 98 1010.6
20260509134857 47 155 4.0 10.0 0.01 0.04 0.03 97 1010.6
20260509132858 47 171 6.0 13.0 0.01 0.03 0.02 97 1010.6
20260509131857 47 165 10.0 12.0 0.01 0.03 0.02 97 1010.6
20260509130857 46 163 6.0 11.0 0.01 0.03 0.02 97 1010.6
20260509125856 46 146 6.0 11.0 0.02 0.03 0.02 97 1010.7
20260509124856 46 148 8.0 10.0 0.02 0.03 0.02 97 1010.7
20260509122856 46 133 3.0 8.0 0.01 0.02 0.01 96 1010.9
20260509121856 45 140 5.0 10.0 0.01 0.02 0.01 95 1010.8
20260509120856 45 150 10.0 10.0 0.01 0.02 0.01 95 1011.0
20260509115856 45 153 8.0 11.0 0.00 0.01 0.00 95 1011.4
20260509113855 45 146 8.0 11.0 0.00 0.01 0.00 93 1011.4
20260509112855 45 139 9.0 10.0 0.00 0.01 0.00 92 1011.3
20260509111854 44 168 6.0 9.0 0.00 0.01 0.00 92 1011.3
20260509110854 44 166 4.0 9.0 0.00 0.01 0.00 91 1011.2
20260509103853 43 177 3.0 9.0 0.00 0.02 0.00 90 1011.4
20260509102853 43 173 7.0 10.0 0.00 0.02 0.00 89 1011.4
20260509101853 43 155 7.0 12.0 0.00 0.02 0.00 88 1011.3
20260509095853 43 182 4.0 10.0 0.00 0.02 0.00 87 1011.3
20260509094853 43 183 6.0 9.0 0.00 0.02 0.00 87 1011.1
20260509093853 43 174 5.0 10.0 0.00 0.02 0.00 85 1011.1
20260509092852 43 192 6.0 10.0 0.00 0.02 0.00 84 1011.0
20260509091852 43 185 4.0 8.0 0.00 0.02 0.00 83 1011.3
20260509090852 43 184 5.0 11.0 0.00 0.02 0.00 82 1011.3
20260509083851 43 172 3.0 7.0 0.00 0.02 0.00 79 1011.7
20260509082851 43 190 4.0 7.0 0.00 0.02 0.00 79 1011.7
20260509080851 44 180 3.0 7.0 0.00 0.02 0.00 76 1011.8
20260509075852 44 175 6.0 8.0 0.00 0.02 0.00 75 1011.7
20260509074851 43 178 4.0 9.0 0.00 0.02 0.00 75 1011.7
20260509073851 43 184 4.0 6.0 0.00 0.02 0.00 75 1011.8
20260509072850 43 208 2.0 5.0 0.00 0.03 0.00 75 1012.0
20260509071850 43 205 4.0 6.0 0.00 0.03 0.00 74 1011.8
20260509070850 42 209 3.0 7.0 0.00 0.04 0.00 74 1011.7
20260509065850 43 202 1.0 4.0 0.00 0.04 0.00 72 1011.9
20260509064850 43 196 0.0 6.0 0.00 0.04 0.00 71 1011.8
20260509063850 43 212 5.0 5.0 0.00 0.04 0.00 72 1011.9
20260509061849 42 221 6.0 6.0 0.00 0.04 0.00 75 1012.2
20260509060849 41 209 1.0 3.0 0.00 0.04 0.00 78 1012.3
20260509055850 41 207 2.0 5.0 0.00 0.04 0.00 78 1012.4
20260509054848 41 194 2.0 3.0 0.00 0.04 0.00 80 1012.6
20260509053848 41 190 0.0 3.0 0.00 0.04 0.00 78 1012.7
20260509052848 41 190 1.0 4.0 0.00 0.04 0.00 80 1012.8
20260509051848 41 190 3.0 4.0 0.00 0.04 0.00 82 1012.8
20260509050848 41 190 2.0 4.0 0.00 0.04 0.00 82 1012.9
20260509045848 41 209 2.0 4.0 0.00 0.04 0.00 82 1013.0
20260509044848 41 185 3.0 4.0 0.00 0.04 0.00 85 1013.1
20260509043847 40 185 2.0 2.0 0.00 0.04 0.00 85 1013.1
20260509042847 40 185 0.0 2.0 0.00 0.04 0.00 84 1013.1
20260509041847 40 185 0.0 3.0 0.00 0.04 0.00 83 1013.1
20260509040847 40 185 1.0 3.0 0.00 0.04 0.00 82 1013.1
20260509035847 41 185 1.0 3.0 0.00 0.04 0.04 81 1013.0
20260509034847 41 202 2.0 5.0 0.00 0.04 0.04 78 1013.0
20260509033847 41 216 3.0 4.0 0.00 0.04 0.04 79 1012.9
20260509032846 40 215 1.0 5.0 0.00 0.04 0.04 81 1013.2
20260509031847 40 180 3.0 5.0 0.00 0.04 0.04 82 1013.1
20260509030846 40 189 1.0 4.0 0.00 0.04 0.04 82 1013.2
20260509025846 40 205 2.0 2.0 0.00 0.04 0.04 81 1013.0
20260509024846 41 208 0.0 2.0 0.00 0.04 0.04 78 1013.1
20260509023845 41 208 2.0 3.0 0.00 0.04 0.04 76 1013.2
20260509022845 41 208 2.0 4.0 0.00 0.04 0.04 77 1013.3
20260509021845 41 202 2.0 5.0 0.00 0.04 0.04 76 1013.3
20260509013845 42 225 0.0 0.0 0.00 0.04 0.04 73 1013.0
20260509012844 42 231 0.0 0.0 0.00 0.04 0.04 73 1012.8
20260509011844 42 247 0.0 0.0 0.00 0.04 0.04 73 1012.5
20260509010844 42 248 0.0 0.0 0.00 0.04 0.04 75 1012.3
20260509004843 43 252 0.0 0.0 0.00 0.04 0.04 72 1012.4
20260509002843 45 252 2.0 2.0 0.00 0.04 0.04 67 1012.3
20260509001843 45 252 1.0 2.0 0.00 0.04 0.04 66 1012.3
20260509000843 45 252 2.0 3.0 0.00 0.04 0.04 66 1012.3
20260508235843 45 250 1.0 2.0 0.00 0.04 0.04 66 1012.2
20260508234843 46 297 1.0 1.0 0.00 0.04 0.04 64 1012.1
20260508233842 47 311 0.0 0.0 0.00 0.04 0.04 62 1012.0
20260508232842 48 311 0.0 0.0 0.00 0.04 0.04 63 1012.1
20260508231842 51 312 0.0 0.0 0.00 0.04 0.04 59 1012.3
20260508224842 53 302 2.0 4.0 0.00 0.04 0.04 54 1012.1
20260508223842 52 314 1.0 4.0 0.00 0.04 0.04 54 1012.0
20260508222841 52 279 4.0 8.0 0.00 0.04 0.04 53 1012.1
20260508221841 52 284 3.0 8.0 0.00 0.04 0.04 53 1012.2
20260508220911 52 269 1.0 6.0 0.00 0.04 0.04 56 1012.3
20260508215911 52 277 2.0 10.0 0.00 0.04 0.04 55 1012.2
20260508214911 51 5 3.0 8.0 0.00 0.04 0.04 56 1012.3
20260508212840 51 321 5.0 11.0 0.00 0.04 0.04 54 1012.5
20260508211910 51 277 6.0 13.0 0.00 0.04 0.04 55 1012.5
20260508210840 51 311 3.0 11.0 0.00 0.04 0.04 56 1012.4
20260508204910 50 263 6.0 14.0 0.00 0.04 0.04 57 1012.6
20260508203839 50 309 11.0 16.0 0.00 0.04 0.04 56 1012.7
20260508202839 49 184 5.0 13.0 0.00 0.04 0.04 60 1012.6
20260508201909 49 213 2.0 12.0 0.00 0.04 0.04 64 1012.6
20260508200909 50 286 9.0 14.0 0.00 0.04 0.04 60 1012.8
20260508195908 49 289 3.0 16.0 0.00 0.04 0.04 63 1012.9
20260508194909 50 5 3.0 10.0 0.00 0.04 0.04 64 1012.9
20260508193838 49 340 5.0 11.0 0.00 0.04 0.04 66 1013.0
20260508192908 48 284 6.0 15.0 0.00 0.04 0.04 67 1012.9
20260508191908 48 309 1.0 11.0 0.00 0.04 0.04 68 1012.9
20260508190908 48 186 0.0 13.0 0.00 0.04 0.04 72 1013.0
20260508185908 47 205 1.0 12.0 0.00 0.04 0.04 73 1013.2
20260508184907 47 191 12.0 12.0 0.00 0.04 0.04 72 1013.3
20260508183907 46 198 7.0 14.0 0.00 0.04 0.04 75 1013.3
20260508182907 45 180 3.0 10.0 0.00 0.04 0.04 76 1013.2
20260508181907 45 197 4.0 14.0 0.00 0.04 0.04 76 1013.2
20260508180907 46 202 9.0 16.0 0.00 0.04 0.04 76 1013.4
20260508175906 46 217 4.0 11.0 0.00 0.04 0.04 79 1013.4
20260508174906 45 196 4.0 9.0 0.00 0.04 0.04 80 1013.4
20260508173906 44 289 5.0 11.0 0.00 0.04 0.04 79 1013.6
20260508172906 44 190 2.0 12.0 0.00 0.04 0.04 82 1013.8
20260508171906 43 199 7.0 10.0 0.00 0.04 0.04 82 1013.9
20260508170906 44 219 3.0 10.0 0.00 0.04 0.04 85 1013.7
20260508164905 42 281 6.0 8.0 0.00 0.04 0.04 86 1013.6
20260508163905 42 190 2.0 7.0 0.00 0.04 0.04 87 1013.6
20260508162905 41 281 4.0 10.0 0.00 0.04 0.04 86 1013.5